Minneapolis, MN

4:52 PM CST on February 22, 2017 (GMT -0600)
Anoka County / Blaine Airport

Weather History for KANE - October, 2012

Change the Weather History Date:

Saturday, October 6, 2012

  Actual Average Record
Temperature  
Mean Temperature 38 °F -  
Max Temperature 44 °F 61 °F 86 °F (2007)
Min Temperature 33 °F 40 °F 28 °F (1999)
Degree Days  
Heating Degree Days 26    
Moisture  
Dew Point 29 °F    
Average Humidity 72    
Maximum Humidity 93    
Minimum Humidity 39    
Precipitation  
Precipitation 0.00 in - - ()
Sea Level Pressure  
Sea Level Pressure 30.19 in    
Wind  
Wind Speed 10 mph (NW)    
Max Wind Speed 17 mph    
Max Gust Speed 22 mph    
Visibility 10 miles    
Events Rain    
Averages and records for this station are not official NWS values.
T = Trace of Precipitation, MM = Missing Value Source: NWS Daily Summary

Daily Weather History Graph

Daily Weather History Graph

Search for Another Location

Airport or City:

Trip Planner

Search our weather history database for the weather conditions in past years. The results will help you decide how hot, cold, wet, or windy it might be!

Date:

Astronomy

Oct. 06, 2012 Rise Set
Actual Time 7:17 AM CDT 6:42 PM CDT
Civil Twilight 6:48 AM CDT 7:12 PM CDT
Nautical Twilight 6:14 AM CDT 7:46 PM CDT
Astronomical Twilight 5:39 AM CDT 8:20 PM CDT
Moon 10:47 PM CDT (10/6) 1:25 PM CDT (10/6)
Length of Visible Light 12h 23m
Length of Day
11h 25m
Waning Gibbous, 65% of the Moon is Illuminated
Oct 6
Waning Gibbous
Oct 8
Last Quarter
Oct 15
New
Oct 21
First Quarter
Oct 29
Full

Hourly Weather History & Observations

Time (CDT) Temp. Windchill Dew Point Humidity Pressure Visibility Wind Dir Wind Speed Gust Speed Precip Events Conditions
12:14 AM 39.2 °F 31.2 °F 28.4 °F 65% 30.13 in 10.0 mi WNW 13.8 mph 20.7 mph N/A   Overcast
12:34 AM 37.4 °F 28.9 °F 28.4 °F 70% 30.13 in 10.0 mi WNW 13.8 mph 21.9 mph N/A   Overcast
12:54 AM 37.4 °F 29.3 °F 28.4 °F 70% 30.13 in 10.0 mi WNW 12.7 mph 19.6 mph N/A   Overcast
1:14 AM 37.4 °F 29.3 °F 28.4 °F 70% 30.13 in 10.0 mi West 12.7 mph - N/A   Overcast
1:34 AM 37.4 °F 29.3 °F 30.2 °F 75% 30.13 in 10.0 mi WNW 12.7 mph 16.1 mph N/A   Overcast
1:54 AM 37.4 °F 30.3 °F 30.2 °F 75% 30.14 in 10.0 mi WNW 10.4 mph - N/A   Overcast
2:14 AM 37.4 °F 30.3 °F 30.2 °F 75% 30.14 in 10.0 mi WNW 10.4 mph - N/A   Overcast
2:34 AM 37.4 °F 30.8 °F 30.2 °F 75% 30.14 in 10.0 mi WNW 9.2 mph 18.4 mph N/A   Overcast
2:54 AM 37.4 °F 29.8 °F 30.2 °F 75% 30.14 in 10.0 mi WNW 11.5 mph - N/A   Overcast
3:14 AM 37.4 °F 30.3 °F 30.2 °F 75% 30.14 in 10.0 mi WNW 10.4 mph 16.1 mph N/A   Overcast
3:34 AM 37.4 °F 30.3 °F 30.2 °F 75% 30.14 in 10.0 mi WNW 10.4 mph 18.4 mph N/A   Overcast
3:54 AM 37.4 °F 28.9 °F 30.2 °F 75% 30.14 in 10.0 mi NW 13.8 mph 18.4 mph N/A   Mostly Cloudy
4:14 AM 37.4 °F 30.3 °F 30.2 °F 75% 30.15 in 10.0 mi WNW 10.4 mph - N/A   Scattered Clouds
4:34 AM 37.4 °F 30.3 °F 32.0 °F 81% 30.15 in 10.0 mi NW 10.4 mph - N/A   Mostly Cloudy
4:54 AM 37.4 °F 30.8 °F 33.8 °F 87% 30.16 in 7.0 mi NW 9.2 mph - N/A Rain Light Rain
5:14 AM 37.4 °F 30.3 °F 33.8 °F 87% 30.16 in 10.0 mi NW 10.4 mph 16.1 mph N/A   Mostly Cloudy
5:34 AM 37.4 °F 30.8 °F 33.8 °F 87% 30.17 in 10.0 mi NW 9.2 mph - N/A   Mostly Cloudy
5:54 AM 37.4 °F 29.8 °F 33.8 °F 87% 30.18 in 10.0 mi NW 11.5 mph - N/A   Mostly Cloudy
6:14 AM 35.6 °F 27.5 °F 33.8 °F 93% 30.18 in 10.0 mi NW 11.5 mph - N/A   Mostly Cloudy
6:34 AM 35.6 °F 28.0 °F 33.8 °F 93% 30.19 in 10.0 mi NW 10.4 mph - N/A   Overcast
6:45 AM 35.6 °F 28.0 °F 33.8 °F 93% 30.19 in 10.0 mi NW 10.4 mph 17.3 mph N/A   Overcast
6:54 AM 35.6 °F 28.0 °F 33.8 °F 93% 30.20 in 10.0 mi NW 10.4 mph - N/A   Overcast
7:45 AM 35.6 °F 29.9 °F 33.8 °F 93% 30.19 in 10.0 mi WNW 6.9 mph - N/A   Scattered Clouds
8:45 AM 37.4 °F 30.8 °F 30.2 °F 75% 30.24 in 10.0 mi NNW 9.2 mph - N/A   Mostly Cloudy
10:45 AM 39.2 °F 30.2 °F 26.6 °F 61% 30.27 in 10.0 mi NW 17.3 mph - N/A   Overcast
11:45 AM 41.0 °F 34.3 °F 24.8 °F 53% 30.27 in 10.0 mi NW 11.5 mph 18.4 mph N/A   Overcast
12:55 PM 42.8 °F 36.2 °F 24.8 °F 49% 30.27 in 10.0 mi North 12.7 mph 17.3 mph N/A   Overcast
1:50 PM 44.6 °F 38.1 °F 23.0 °F 43% 30.25 in 10.0 mi NW 13.8 mph 18.4 mph N/A   Overcast
2:45 PM 44.6 °F 37.4 °F 21.2 °F 39% 30.23 in 10.0 mi NNW 16.1 mph - N/A   Overcast
4:50 PM 44.6 °F 40.7 °F 23.0 °F 43% 30.22 in 10.0 mi North 6.9 mph - N/A   Overcast
6:50 PM 42.8 °F 41.1 °F 23.0 °F 46% 30.22 in 10.0 mi NNW 3.5 mph - N/A   Overcast
7:45 PM 41.0 °F - 24.8 °F 53% 30.23 in 10.0 mi Calm Calm - N/A   Overcast
8:50 PM 37.4 °F - 28.4 °F 70% 30.24 in 10.0 mi Calm Calm - N/A   Overcast
9:14 PM 37.4 °F - 28.4 °F 70% 30.23 in 10.0 mi Calm Calm - N/A   Overcast
9:34 PM 37.4 °F - 28.4 °F 70% 30.23 in 10.0 mi Calm Calm - N/A   Mostly Cloudy
9:54 PM 37.4 °F - 28.4 °F 70% 30.23 in 10.0 mi Calm Calm - N/A   Overcast
10:14 PM 35.6 °F - 28.4 °F 75% 30.23 in 10.0 mi Calm Calm - N/A   Overcast
10:34 PM 35.6 °F 32.8 °F 28.4 °F 75% 30.23 in 10.0 mi SSW 3.5 mph - N/A   Mostly Cloudy
10:54 PM 37.4 °F - 28.4 °F 70% 30.23 in 10.0 mi Calm Calm - N/A   Scattered Clouds
11:14 PM 35.6 °F 32.8 °F 28.4 °F 75% 30.23 in 10.0 mi SW 3.5 mph - N/A   Mostly Cloudy
11:33 PM 33.8 °F - 26.6 °F 75% 30.22 in 10.0 mi Calm Calm - N/A   Mostly Cloudy
11:54 PM 33.8 °F - 28.4 °F 81% 30.22 in 10.0 mi Calm Calm - N/A   Scattered Clouds